Volver al catálogo

STARLINK-37346

ActivoComunicacionesVLEO
NORAD 69149·PAYLOAD·🇺🇸 United States

Lanzado May 21, 2026 desde Cape Canaveral Space Force Station

Loading…

Próximos Pases (próximas 24 horas)

TLE

ActualizadoSource: CelesTrak SupGP

Época: Sep 15, 2026, 03:21 UTC

1 69149C 26111B   26258.14006944 -.00021526  00000+0 -63651-3 0  2580
2 69149  53.1571  91.1161 0001247  83.4649 194.2153 15.34375749    14

Sigue STARLINK-37346 en tiempo real con AllMySat

Download on the App Store